contact:dominique.lefevre@mio.osupytheas.fr, maurice.libes@osupytheas.fr, didier.mallarino@osupytheas.fr
Project:EMSO http://www.emso-fr.org/EMSO-France
Depth: 2436.0 m
Title:EMSO Ligure Ouest : Data MII capteur MICROCAT
DateTime_Computer,Latitude,Longitude,Temperature,Conductivity,Pressure,DateTime_Instrument
DateTime_Computer,Latitude,Longitude,degC,S m-1,dbar,DateTime_Instrument
2023-01-23T00:02:11Z,42.805,6.029,13.3017,4.60073,2470.544,2023-1-23T02:08:34Z
2023-01-23T00:05:14Z,42.805,6.029,13.3018,4.60075,2470.53,2023-1-23T02:11:38Z
2023-01-23T00:08:17Z,42.805,6.029,13.3015,4.60072,2470.507,2023-1-23T02:14:41Z
2023-01-23T00:11:20Z,42.805,6.029,13.3018,4.60072,2470.544,2023-1-23T02:17:44Z
2023-01-23T00:14:23Z,42.805,6.029,13.3016,4.60072,2470.544,2023-1-23T02:20:47Z
2023-01-23T00:17:26Z,42.805,6.029,13.3015,4.60072,2470.507,2023-1-23T02:23:50Z
2023-01-23T00:20:29Z,42.805,6.029,13.3017,4.60071,2470.52,2023-1-23T02:26:53Z
2023-01-23T00:23:33Z,42.805,6.029,13.3021,4.60074,2470.493,2023-1-23T02:29:56Z
2023-01-23T00:26:36Z,42.805,6.029,13.3019,4.60070,2470.507,2023-1-23T02:32:59Z
2023-01-23T00:29:39Z,42.805,6.029,13.3019,4.60074,2470.483,2023-1-23T02:36:02Z
2023-01-23T00:32:42Z,42.805,6.029,13.3016,4.60073,2470.507,2023-1-23T02:39:05Z
2023-01-23T00:35:45Z,42.805,6.029,13.3013,4.60071,2470.507,2023-1-23T02:42:08Z
2023-01-23T00:38:48Z,42.805,6.029,13.3015,4.60072,2470.483,2023-1-23T02:45:12Z
2023-01-23T00:41:51Z,42.805,6.029,13.3014,4.60069,2470.497,2023-1-23T02:48:15Z
2023-01-23T00:44:54Z,42.805,6.029,13.3017,4.60075,2470.46,2023-1-23T02:51:18Z
2023-01-23T00:47:57Z,42.805,6.029,13.3015,4.60074,2470.52,2023-1-23T02:54:21Z
2023-01-23T00:51:00Z,42.805,6.029,13.3017,4.60071,2470.497,2023-1-23T02:57:24Z
2023-01-23T00:54:03Z,42.805,6.029,13.3018,4.60072,2470.507,2023-1-23T03:00:27Z
2023-01-23T00:57:06Z,42.805,6.029,13.3014,4.60074,2470.46,2023-1-23T03:03:30Z
2023-01-23T01:00:10Z,42.805,6.029,13.3019,4.60073,2470.507,2023-1-23T03:06:33Z
2023-01-23T01:03:13Z,42.805,6.029,13.3015,4.60072,2470.483,2023-1-23T03:09:36Z
2023-01-23T01:06:16Z,42.805,6.029,13.3015,4.60074,2470.507,2023-1-23T03:12:39Z
2023-01-23T01:09:19Z,42.805,6.029,13.3015,4.60075,2470.507,2023-1-23T03:15:42Z
2023-01-23T01:12:22Z,42.805,6.029,13.3014,4.60069,2470.46,2023-1-23T03:18:45Z
2023-01-23T01:15:25Z,42.805,6.029,13.3015,4.60075,2470.483,2023-1-23T03:21:49Z
2023-01-23T01:18:28Z,42.805,6.029,13.3014,4.60072,2470.483,2023-1-23T03:24:52Z
2023-01-23T01:21:31Z,42.805,6.029,13.3020,4.60069,2470.483,2023-1-23T03:27:55Z
2023-01-23T01:24:34Z,42.805,6.029,13.3015,4.60072,2470.483,2023-1-23T03:30:58Z
2023-01-23T01:27:37Z,42.805,6.029,13.3021,4.60072,2470.497,2023-1-23T03:34:01Z
2023-01-23T01:30:40Z,42.805,6.029,13.3014,4.60072,2470.46,2023-1-23T03:37:04Z
2023-01-23T01:33:44Z,42.805,6.029,13.3015,4.60078,2470.483,2023-1-23T03:40:07Z
2023-01-23T01:36:47Z,42.805,6.029,13.3018,4.60072,2470.474,2023-1-23T03:43:10Z
2023-01-23T01:39:50Z,42.805,6.029,13.3019,4.60072,2470.474,2023-1-23T03:46:13Z
2023-01-23T01:42:53Z,42.805,6.029,13.3015,4.60070,2470.474,2023-1-23T03:49:16Z
2023-01-23T01:45:56Z,42.805,6.029,13.3014,4.60070,2470.52,2023-1-23T03:52:19Z
2023-01-23T01:48:59Z,42.805,6.029,13.3016,4.60076,2470.46,2023-1-23T03:55:23Z
2023-01-23T01:52:02Z,42.805,6.029,13.3014,4.60073,2470.46,2023-1-23T03:58:26Z
2023-01-23T01:55:05Z,42.805,6.029,13.3019,4.60069,2470.497,2023-1-23T04:01:29Z
2023-01-23T01:58:08Z,42.805,6.029,13.3017,4.60076,2470.483,2023-1-23T04:04:32Z
2023-01-23T02:01:11Z,42.805,6.029,13.3015,4.60074,2470.483,2023-1-23T04:07:35Z
2023-01-23T02:04:14Z,42.805,6.029,13.3015,4.60072,2470.507,2023-1-23T04:10:38Z
2023-01-23T02:07:17Z,42.805,6.029,13.3015,4.60072,2470.483,2023-1-23T04:13:41Z
2023-01-23T02:10:21Z,42.805,6.029,13.3015,4.60072,2470.437,2023-1-23T04:16:44Z
2023-01-23T02:13:24Z,42.805,6.029,13.3014,4.60072,2470.46,2023-1-23T04:19:47Z
2023-01-23T02:16:27Z,42.805,6.029,13.3016,4.60072,2470.46,2023-1-23T04:22:50Z
2023-01-23T02:19:30Z,42.805,6.029,13.3014,4.60072,2470.483,2023-1-23T04:25:53Z
2023-01-23T02:22:33Z,42.805,6.029,13.3016,4.60077,2470.46,2023-1-23T04:28:57Z
2023-01-23T02:25:36Z,42.805,6.029,13.3018,4.60072,2470.497,2023-1-23T04:32:00Z
2023-01-23T02:28:39Z,42.805,6.029,13.3019,4.60074,2470.45,2023-1-23T04:35:03Z
2023-01-23T02:31:42Z,42.805,6.029,13.3015,4.60071,2470.46,2023-1-23T04:38:06Z
2023-01-23T02:34:45Z,42.805,6.029,13.3016,4.60072,2470.46,2023-1-23T04:41:09Z
2023-01-23T02:37:48Z,42.805,6.029,13.3015,4.60072,2470.474,2023-1-23T04:44:12Z
2023-01-23T02:40:51Z,42.805,6.029,13.3014,4.60072,2470.483,2023-1-23T04:47:15Z
2023-01-23T02:43:54Z,42.805,6.029,13.3019,4.60072,2470.483,2023-1-23T04:50:18Z
2023-01-23T02:46:58Z,42.805,6.029,13.3017,4.60072,2470.437,2023-1-23T04:53:21Z
2023-01-23T02:50:01Z,42.805,6.029,13.3016,4.60076,2470.45,2023-1-23T04:56:24Z
2023-01-23T02:53:04Z,42.805,6.029,13.3019,4.60072,2470.474,2023-1-23T04:59:27Z
2023-01-23T02:56:07Z,42.805,6.029,13.3012,4.60073,2470.483,2023-1-23T05:02:30Z
2023-01-23T02:59:10Z,42.805,6.029,13.3017,4.60074,2470.474,2023-1-23T05:05:34Z
2023-01-23T03:02:13Z,42.805,6.029,13.3015,4.60073,2470.437,2023-1-23T05:08:37Z
2023-01-23T03:05:16Z,42.805,6.029,13.3012,4.60073,2470.497,2023-1-23T05:11:40Z
2023-01-23T03:08:19Z,42.805,6.029,13.3013,4.60073,2470.46,2023-1-23T05:14:43Z
2023-01-23T03:11:22Z,42.805,6.029,13.3012,4.60074,2470.483,2023-1-23T05:17:46Z
2023-01-23T03:14:25Z,42.805,6.029,13.3017,4.60071,2470.483,2023-1-23T05:20:49Z
2023-01-23T03:17:28Z,42.805,6.029,13.3015,4.60072,2470.497,2023-1-23T05:23:52Z
2023-01-23T03:20:32Z,42.805,6.029,13.3017,4.60072,2470.47,2023-1-23T05:26:55Z
2023-01-23T03:23:35Z,42.805,6.029,13.3015,4.60072,2470.483,2023-1-23T05:29:58Z
2023-01-23T03:26:38Z,42.805,6.029,13.3015,4.60073,2470.47,2023-1-23T05:33:01Z
2023-01-23T03:29:41Z,42.805,6.029,13.3015,4.60072,2470.497,2023-1-23T05:36:04Z
2023-01-23T03:32:44Z,42.805,6.029,13.3015,4.60074,2470.507,2023-1-23T05:39:08Z
2023-01-23T03:35:47Z,42.805,6.029,13.3015,4.60072,2470.483,2023-1-23T05:42:11Z
2023-01-23T03:38:50Z,42.805,6.029,13.3015,4.60074,2470.483,2023-1-23T05:45:14Z
2023-01-23T03:41:53Z,42.805,6.029,13.3015,4.60075,2470.507,2023-1-23T05:48:17Z
2023-01-23T03:44:56Z,42.805,6.029,13.3018,4.60072,2470.52,2023-1-23T05:51:20Z
2023-01-23T03:47:59Z,42.805,6.029,13.3015,4.60072,2470.52,2023-1-23T05:54:23Z
2023-01-23T03:51:02Z,42.805,6.029,13.3018,4.60071,2470.483,2023-1-23T05:57:26Z
2023-01-23T03:54:05Z,42.805,6.029,13.3019,4.60071,2470.52,2023-1-23T06:00:29Z
2023-01-23T03:57:09Z,42.805,6.029,13.3018,4.60074,2470.497,2023-1-23T06:03:32Z
2023-01-23T04:00:12Z,42.805,6.029,13.3016,4.60072,2470.53,2023-1-23T06:06:35Z
2023-01-23T04:03:15Z,42.805,6.029,13.3015,4.60073,2470.507,2023-1-23T06:09:38Z
2023-01-23T04:06:18Z,42.805,6.029,13.3017,4.60072,2470.53,2023-1-23T06:12:41Z
2023-01-23T04:09:21Z,42.805,6.029,13.3013,4.60073,2470.497,2023-1-23T06:15:45Z
2023-01-23T04:12:24Z,42.805,6.029,13.3014,4.60073,2470.53,2023-1-23T06:18:48Z
2023-01-23T04:15:27Z,42.805,6.029,13.3014,4.60071,2470.507,2023-1-23T06:21:51Z
2023-01-23T04:18:30Z,42.805,6.029,13.3015,4.60074,2470.553,2023-1-23T06:24:54Z
2023-01-23T04:21:33Z,42.805,6.029,13.3015,4.60073,2470.577,2023-1-23T06:27:57Z
2023-01-23T04:24:36Z,42.805,6.029,13.3012,4.60071,2470.483,2023-1-23T06:31:00Z
2023-01-23T04:27:39Z,42.805,6.029,13.3016,4.60074,2470.567,2023-1-23T06:34:03Z
2023-01-23T04:30:42Z,42.805,6.029,13.3014,4.60073,2470.567,2023-1-23T06:37:06Z
2023-01-23T04:33:46Z,42.805,6.029,13.3018,4.60072,2470.53,2023-1-23T06:40:09Z
2023-01-23T04:36:49Z,42.805,6.029,13.3015,4.60074,2470.52,2023-1-23T06:43:12Z
2023-01-23T04:39:52Z,42.805,6.029,13.3019,4.60074,2470.577,2023-1-23T06:46:15Z
2023-01-23T04:42:55Z,42.805,6.029,13.3018,4.60072,2470.553,2023-1-23T06:49:19Z
2023-01-23T04:45:58Z,42.805,6.029,13.3017,4.60074,2470.567,2023-1-23T06:52:22Z
2023-01-23T04:49:01Z,42.805,6.029,13.3020,4.60074,2470.591,2023-1-23T06:55:25Z
2023-01-23T04:52:04Z,42.805,6.029,13.3017,4.60079,2470.567,2023-1-23T06:58:28Z
2023-01-23T04:55:07Z,42.805,6.029,13.3015,4.60075,2470.553,2023-1-23T07:01:31Z
2023-01-23T04:58:10Z,42.805,6.029,13.3016,4.60081,2470.614,2023-1-23T07:04:34Z
2023-01-23T05:01:13Z,42.805,6.029,13.3019,4.60075,2470.553,2023-1-23T07:07:37Z
2023-01-23T05:04:16Z,42.805,6.029,13.3018,4.60073,2470.624,2023-1-23T07:10:40Z
2023-01-23T05:07:20Z,42.805,6.029,13.3018,4.60074,2470.6,2023-1-23T07:13:43Z
2023-01-23T05:10:23Z,42.805,6.029,13.3016,4.60074,2470.577,2023-1-23T07:16:46Z
2023-01-23T05:13:26Z,42.805,6.029,13.3015,4.60074,2470.567,2023-1-23T07:19:49Z
2023-01-23T05:16:29Z,42.805,6.029,13.3015,4.60074,2470.6,2023-1-23T07:22:53Z
2023-01-23T05:19:32Z,42.805,6.029,13.3016,4.60074,2470.637,2023-1-23T07:25:56Z
2023-01-23T05:22:35Z,42.805,6.029,13.3014,4.60077,2470.624,2023-1-23T07:28:59Z
2023-01-23T05:25:38Z,42.805,6.029,13.3014,4.60076,2470.624,2023-1-23T07:32:02Z
2023-01-23T05:28:41Z,42.805,6.029,13.3016,4.60074,2470.646,2023-1-23T07:35:05Z
2023-01-23T05:31:44Z,42.805,6.029,13.3019,4.60074,2470.624,2023-1-23T07:38:08Z
2023-01-23T05:34:47Z,42.805,6.029,13.3017,4.60078,2470.646,2023-1-23T07:41:11Z
2023-01-23T05:37:50Z,42.805,6.029,13.3020,4.60078,2470.586,2023-1-23T07:44:14Z
2023-01-23T05:40:53Z,42.805,6.029,13.3016,4.60076,2470.661,2023-1-23T07:47:17Z
2023-01-23T05:43:57Z,42.805,6.029,13.3017,4.60075,2470.67,2023-1-23T07:50:20Z
2023-01-23T05:47:00Z,42.805,6.029,13.3017,4.60074,2470.646,2023-1-23T07:53:23Z
2023-01-23T05:50:03Z,42.805,6.029,13.3020,4.60074,2470.646,2023-1-23T07:56:26Z
2023-01-23T05:53:06Z,42.805,6.029,13.3015,4.60079,2470.67,2023-1-23T07:59:30Z
2023-01-23T05:56:09Z,42.805,6.029,13.3016,4.60078,2470.684,2023-1-23T08:02:33Z
2023-01-23T05:59:12Z,42.805,6.029,13.3017,4.60074,2470.646,2023-1-23T08:05:36Z
2023-01-23T06:02:15Z,42.805,6.029,13.3015,4.60075,2470.693,2023-1-23T08:08:39Z
2023-01-23T06:05:18Z,42.805,6.029,13.3016,4.60079,2470.717,2023-1-23T08:11:42Z
2023-01-23T06:08:21Z,42.805,6.029,13.3020,4.60076,2470.67,2023-1-23T08:14:45Z
2023-01-23T06:11:24Z,42.805,6.029,13.3018,4.60074,2470.693,2023-1-23T08:17:48Z
2023-01-23T06:14:27Z,42.805,6.029,13.3011,4.60079,2470.693,2023-1-23T08:20:51Z
2023-01-23T06:17:30Z,42.805,6.029,13.3015,4.60078,2470.693,2023-1-23T08:23:54Z
2023-01-23T06:20:34Z,42.805,6.029,13.3017,4.60079,2470.73,2023-1-23T08:26:57Z
2023-01-23T06:23:37Z,42.805,6.029,13.3017,4.60078,2470.73,2023-1-23T08:30:00Z
2023-01-23T06:26:40Z,42.805,6.029,13.3017,4.60087,2470.717,2023-1-23T08:33:04Z
2023-01-23T06:29:43Z,42.805,6.029,13.3013,4.60077,2470.717,2023-1-23T08:36:07Z
2023-01-23T06:32:46Z,42.805,6.029,13.3015,4.60081,2470.693,2023-1-23T08:39:10Z
2023-01-23T06:35:49Z,42.805,6.029,13.3014,4.60084,2470.74,2023-1-23T08:42:13Z
2023-01-23T06:38:52Z,42.805,6.029,13.3018,4.60081,2470.777,2023-1-23T08:45:16Z
2023-01-23T06:41:55Z,42.805,6.029,13.3013,4.60077,2470.717,2023-1-23T08:48:19Z
2023-01-23T06:44:58Z,42.805,6.029,13.3019,4.60077,2470.763,2023-1-23T08:51:22Z
2023-01-23T06:48:01Z,42.805,6.029,13.3019,4.60077,2470.777,2023-1-23T08:54:25Z
2023-01-23T06:51:04Z,42.805,6.029,13.3016,4.60075,2470.777,2023-1-23T08:57:28Z
2023-01-23T06:54:08Z,42.805,6.029,13.3015,4.60076,2470.754,2023-1-23T09:00:31Z
2023-01-23T06:57:11Z,42.805,6.029,13.3019,4.60079,2470.763,2023-1-23T09:03:34Z
2023-01-23T07:00:14Z,42.805,6.029,13.3015,4.60079,2470.787,2023-1-23T09:06:37Z
2023-01-23T07:03:17Z,42.805,6.029,13.3020,4.60078,2470.754,2023-1-23T09:09:41Z
2023-01-23T07:06:20Z,42.805,6.029,13.3016,4.60084,2470.763,2023-1-23T09:12:44Z
2023-01-23T07:09:23Z,42.805,6.029,13.3019,4.60081,2470.754,2023-1-23T09:15:47Z
2023-01-23T07:12:26Z,42.805,6.029,13.3014,4.60077,2470.763,2023-1-23T09:18:50Z
2023-01-23T07:15:29Z,42.805,6.029,13.3016,4.60082,2470.787,2023-1-23T09:21:53Z
2023-01-23T07:18:32Z,42.805,6.029,13.3020,4.60079,2470.777,2023-1-23T09:24:56Z
2023-01-23T07:21:35Z,42.805,6.029,13.3022,4.60076,2470.81,2023-1-23T09:27:59Z
2023-01-23T07:24:38Z,42.805,6.029,13.3016,4.60081,2470.81,2023-1-23T09:31:02Z
2023-01-23T07:27:41Z,42.805,6.029,13.3017,4.60083,2470.8,2023-1-23T09:34:05Z
2023-01-23T07:30:45Z,42.805,6.029,13.3018,4.60077,2470.75,2023-1-23T09:37:08Z
2023-01-23T07:33:48Z,42.805,6.029,13.3015,4.60079,2470.787,2023-1-23T09:40:11Z
2023-01-23T07:36:51Z,42.805,6.029,13.3015,4.60078,2470.787,2023-1-23T09:43:15Z
2023-01-23T07:39:54Z,42.805,6.029,13.3019,4.60075,2470.763,2023-1-23T09:46:18Z
2023-01-23T07:42:57Z,42.805,6.029,13.3017,4.60075,2470.787,2023-1-23T09:49:21Z
2023-01-23T07:46:00Z,42.805,6.029,13.3017,4.60076,2470.787,2023-1-23T09:52:24Z
2023-01-23T07:49:03Z,42.805,6.029,13.3015,4.60077,2470.787,2023-1-23T09:55:27Z
2023-01-23T07:52:06Z,42.805,6.029,13.3016,4.60075,2470.833,2023-1-23T09:58:30Z
2023-01-23T07:55:09Z,42.805,6.029,13.3015,4.60074,2470.787,2023-1-23T10:01:33Z
2023-01-23T07:58:12Z,42.805,6.029,13.3019,4.60074,2470.81,2023-1-23T10:04:36Z
2023-01-23T08:01:15Z,42.805,6.029,13.3018,4.60075,2470.787,2023-1-23T10:07:39Z
2023-01-23T08:04:19Z,42.805,6.029,13.3014,4.60076,2470.787,2023-1-23T10:10:42Z
2023-01-23T08:07:22Z,42.805,6.029,13.3018,4.60075,2470.8,2023-1-23T10:13:45Z
2023-01-23T08:10:25Z,42.805,6.029,13.3019,4.60074,2470.8,2023-1-23T10:16:49Z
2023-01-23T08:13:28Z,42.805,6.029,13.3013,4.60077,2470.787,2023-1-23T10:19:52Z
2023-01-23T08:16:31Z,42.805,6.029,13.3012,4.60073,2470.824,2023-1-23T10:22:55Z
2023-01-23T08:19:34Z,42.805,6.029,13.3014,4.60074,2470.787,2023-1-23T10:25:58Z
2023-01-23T08:22:37Z,42.805,6.029,13.3015,4.60074,2470.787,2023-1-23T10:29:01Z
2023-01-23T08:25:40Z,42.805,6.029,13.3015,4.60074,2470.796,2023-1-23T10:32:04Z
2023-01-23T08:28:43Z,42.805,6.029,13.3019,4.60074,2470.81,2023-1-23T10:35:07Z
2023-01-23T08:31:46Z,42.805,6.029,13.3016,4.60074,2470.787,2023-1-23T10:38:10Z
2023-01-23T08:34:49Z,42.805,6.029,13.3017,4.60074,2470.81,2023-1-23T10:41:13Z
2023-01-23T08:37:53Z,42.805,6.029,13.3017,4.60075,2470.787,2023-1-23T10:44:16Z
2023-01-23T08:40:56Z,42.805,6.029,13.3019,4.60074,2470.81,2023-1-23T10:47:19Z
2023-01-23T08:43:59Z,42.805,6.029,13.3017,4.60077,2470.787,2023-1-23T10:50:23Z
2023-01-23T08:47:02Z,42.805,6.029,13.3017,4.60075,2470.81,2023-1-23T10:53:26Z
2023-01-23T08:50:05Z,42.805,6.029,13.3020,4.60076,2470.81,2023-1-23T10:56:29Z
2023-01-23T08:53:08Z,42.805,6.029,13.3019,4.60075,2470.824,2023-1-23T10:59:32Z
2023-01-23T08:56:11Z,42.805,6.029,13.3015,4.60074,2470.847,2023-1-23T11:02:35Z
2023-01-23T08:59:14Z,42.805,6.029,13.3019,4.60074,2470.81,2023-1-23T11:05:38Z
2023-01-23T09:02:17Z,42.805,6.029,13.3018,4.60075,2470.8,2023-1-23T11:08:41Z
2023-01-23T09:05:20Z,42.805,6.029,13.3019,4.60074,2470.81,2023-1-23T11:11:44Z
2023-01-23T09:08:23Z,42.805,6.029,13.3018,4.60074,2470.81,2023-1-23T11:14:47Z
2023-01-23T09:11:27Z,42.805,6.029,13.3016,4.60074,2470.81,2023-1-23T11:17:50Z
2023-01-23T09:14:30Z,42.805,6.029,13.3018,4.60072,2470.824,2023-1-23T11:20:53Z
2023-01-23T09:17:33Z,42.805,6.029,13.3016,4.60072,2470.81,2023-1-23T11:23:57Z
2023-01-23T09:20:36Z,42.805,6.029,13.3017,4.60073,2470.787,2023-1-23T11:27:00Z
2023-01-23T09:23:39Z,42.805,6.029,13.3017,4.60074,2470.787,2023-1-23T11:30:03Z
2023-01-23T09:26:42Z,42.805,6.029,13.3015,4.60074,2470.81,2023-1-23T11:33:06Z
2023-01-23T09:29:45Z,42.805,6.029,13.3017,4.60074,2470.763,2023-1-23T11:36:09Z
2023-01-23T09:32:48Z,42.805,6.029,13.3014,4.60072,2470.787,2023-1-23T11:39:12Z
2023-01-23T09:35:51Z,42.805,6.029,13.3017,4.60074,2470.824,2023-1-23T11:42:15Z
2023-01-23T09:38:54Z,42.805,6.029,13.3011,4.60072,2470.787,2023-1-23T11:45:18Z
2023-01-23T09:41:57Z,42.805,6.029,13.3020,4.60072,2470.8,2023-1-23T11:48:21Z
2023-01-23T09:45:01Z,42.805,6.029,13.3018,4.60073,2470.81,2023-1-23T11:51:24Z
2023-01-23T09:48:04Z,42.805,6.029,13.3015,4.60074,2470.8,2023-1-23T11:54:27Z
2023-01-23T09:51:07Z,42.805,6.029,13.3018,4.60075,2470.787,2023-1-23T11:57:31Z
2023-01-23T09:54:10Z,42.805,6.029,13.3015,4.60075,2470.824,2023-1-23T12:00:34Z
2023-01-23T09:57:13Z,42.805,6.029,13.3018,4.60074,2470.763,2023-1-23T12:03:37Z
2023-01-23T10:00:16Z,42.805,6.029,13.3019,4.60079,2470.8,2023-1-23T12:06:40Z
2023-01-23T10:03:19Z,42.805,6.029,13.3019,4.60074,2470.787,2023-1-23T12:09:43Z
2023-01-23T10:06:22Z,42.805,6.029,13.3015,4.60077,2470.787,2023-1-23T12:12:46Z
2023-01-23T10:09:25Z,42.805,6.029,13.3015,4.60074,2470.8,2023-1-23T12:15:49Z
2023-01-23T10:12:28Z,42.805,6.029,13.3015,4.60076,2470.787,2023-1-23T12:18:52Z
2023-01-23T10:15:31Z,42.805,6.029,13.3017,4.60074,2470.81,2023-1-23T12:21:55Z
2023-01-23T10:18:34Z,42.805,6.029,13.3020,4.60072,2470.787,2023-1-23T12:24:58Z
2023-01-23T10:21:38Z,42.805,6.029,13.3019,4.60074,2470.787,2023-1-23T12:28:01Z
2023-01-23T10:24:41Z,42.805,6.029,13.3017,4.60078,2470.787,2023-1-23T12:31:05Z
2023-01-23T10:27:44Z,42.805,6.029,13.3016,4.60075,2470.763,2023-1-23T12:34:08Z
2023-01-23T10:30:47Z,42.805,6.029,13.3016,4.60077,2470.787,2023-1-23T12:37:11Z
2023-01-23T10:33:50Z,42.805,6.029,13.3019,4.60075,2470.763,2023-1-23T12:40:14Z
2023-01-23T10:36:53Z,42.805,6.029,13.3016,4.60074,2470.777,2023-1-23T12:43:17Z
2023-01-23T10:39:56Z,42.805,6.029,13.3017,4.60075,2470.787,2023-1-23T12:46:20Z
2023-01-23T10:42:59Z,42.805,6.029,13.3017,4.60074,2470.74,2023-1-23T12:49:23Z
2023-01-23T10:46:02Z,42.805,6.029,13.3019,4.60078,2470.754,2023-1-23T12:52:26Z
2023-01-23T10:49:05Z,42.805,6.029,13.3014,4.60074,2470.787,2023-1-23T12:55:29Z
2023-01-23T10:52:09Z,42.805,6.029,13.3014,4.60075,2470.763,2023-1-23T12:58:32Z
2023-01-23T10:55:12Z,42.805,6.029,13.3015,4.60078,2470.777,2023-1-23T13:01:36Z
2023-01-23T10:58:15Z,42.805,6.029,13.3015,4.60077,2470.74,2023-1-23T13:04:39Z
2023-01-23T11:01:18Z,42.805,6.029,13.3019,4.60076,2470.74,2023-1-23T13:07:42Z
2023-01-23T11:04:21Z,42.805,6.029,13.3014,4.60074,2470.74,2023-1-23T13:10:45Z
2023-01-23T11:07:24Z,42.805,6.029,13.3021,4.60073,2470.74,2023-1-23T13:13:48Z
2023-01-23T11:10:27Z,42.805,6.029,13.3016,4.60074,2470.74,2023-1-23T13:16:51Z
2023-01-23T11:18:09Z,42.805,6.029,13.3014,4.60074,2470.717,2023-1-23T13:24:32Z
2023-01-23T11:28:08Z,42.805,6.029,13.3018,4.60075,2470.754,2023-1-23T13:34:32Z
